Weather History for KFAR - November, 2011

Change the Weather History Date:

Friday, November 18, 2011

  Actual Average Record
Temperature  
Mean Temperature 28 °F 27 °F  
Max Temperature 33 °F 36 °F 60 °F (1908)
Min Temperature 22 °F 19 °F -13 °F (1881)
Degree Days  
Heating Degree Days 37 38  
Month to date heating degree days 506 586  
Since 1 July heating degree days 1123 1462  
Cooling Degree Days 0 0  
Month to date cooling degree days 0 0  
Year to date cooling degree days 694 551  
Moisture  
Dew Point 18 °F    
Average Humidity 61    
Maximum Humidity 78    
Minimum Humidity 43    
Precipitation  
Precipitation 0.01 in 0.03 in 0.70 in (1998)
Month to date precipitation 0.23 0.65  
Year to date precipitation 23.56 21.43  
Snow  
Snow 0.30 in 0.40 in 5.60 in (1998)
Month to date snowfall 0.5 3.8  
Since 1 July snowfall 0.5 4.5  
Since 1 September snowfall 0.5 4.5  
Snow Depth 0.00 in    
Sea Level Pressure  
Sea Level Pressure 29.71 in    
Wind  
Wind Speed 5 mph (West)    
Max Wind Speed 13 mph    
Max Gust Speed 16 mph    
Visibility 8 miles    
Events Snow    
T = Trace of Precipitation, MM = Missing Value Source: NWS Daily Summary

Daily Weather History Graph

Daily Weather History Graph

Search for Another Location

Airport or City:

Trip Planner

Search our weather history database for the weather conditions in past years. The results will help you decide how hot, cold, wet, or windy it might be!

Date:

Astronomy

Nov. 18, 2011 Rise Set
Actual Time 7:34 AM CST 4:49 PM CST
Civil Twilight 7:00 AM CST 5:23 PM CST
Nautical Twilight 6:23 AM CST 6:00 PM CST
Astronomical Twilight 5:47 AM CST 6:36 PM CST
Moon No Moon Rise 1:02 PM CST (11/18)
Length of Visible Light 10h 22m
Length of Day
9h 15m
Waning Gibbous, 49% of the Moon is Illuminated
Nov 18
Waning Gibbous
Nov 25
New
Dec 2
First Quarter
Dec 10
Full
Dec 17
Last Quarter

Hourly Weather History & Observations

Time (CST) Temp. Windchill Dew Point Humidity Pressure Visibility Wind Dir Wind Speed Gust Speed Precip Events Conditions
12:53 AM 28.0 °F 20.0 °F 12.0 °F 51% 29.66 in 10.0 mi ESE 8.1 mph - N/A   Clear
1:53 AM 26.1 °F 19.4 °F 12.0 °F 55% 29.65 in 10.0 mi ESE 5.8 mph - N/A   Partly Cloudy
2:53 AM 26.1 °F - 12.0 °F 55% 29.65 in 10.0 mi Calm Calm - N/A   Clear
3:53 AM 23.0 °F 18.4 °F 12.0 °F 63% 29.65 in 10.0 mi NNE 3.5 mph - N/A   Clear
4:53 AM 24.1 °F - 14.0 °F 65% 29.65 in 10.0 mi Calm Calm - N/A   Clear
5:53 AM 24.1 °F - 15.1 °F 69% 29.67 in 10.0 mi Calm Calm - N/A   Scattered Clouds
6:53 AM 23.0 °F 18.4 °F 15.1 °F 72% 29.66 in 10.0 mi North 3.5 mph - N/A   Scattered Clouds
7:53 AM 25.0 °F 20.7 °F 16.0 °F 69% 29.64 in 10.0 mi East 3.5 mph - N/A   Overcast
8:53 AM 27.0 °F - 17.1 °F 66% 29.67 in 10.0 mi Calm Calm - N/A   Overcast
9:53 AM 28.9 °F 25.2 °F 15.1 °F 56% 29.66 in 10.0 mi SE 3.5 mph - N/A   Overcast
10:53 AM 28.9 °F 25.2 °F 18.0 °F 64% 29.69 in 2.5 mi WSW 3.5 mph - 0.00 in Snow Light Snow
10:58 AM 28.4 °F 24.6 °F 17.6 °F 64% 29.65 in 1.8 mi SW 3.5 mph - 0.00 in Snow Light Snow
11:11 AM 28.4 °F 24.6 °F 19.4 °F 69% 29.65 in 3.0 mi SW 3.5 mph - 0.00 in Snow Light Snow
11:19 AM 28.4 °F - 19.4 °F 69% 29.65 in 4.0 mi Calm Calm - 0.00 in Snow Light Snow
11:53 AM 28.0 °F 24.2 °F 21.9 °F 78% 29.68 in 3.0 mi South 3.5 mph - 0.00 in Snow Light Snow
12:09 PM 28.4 °F 24.6 °F 23.0 °F 80% 29.63 in 1.8 mi South 3.5 mph - 0.00 in Snow Light Snow
12:17 PM 28.4 °F 24.6 °F 23.0 °F 80% 29.63 in 1.2 mi SSE 3.5 mph - 0.01 in Snow Light Snow
12:21 PM 28.4 °F 24.6 °F 23.0 °F 80% 29.63 in 2.0 mi South 3.5 mph - 0.01 in Snow Light Snow
12:29 PM 28.4 °F 24.6 °F 23.0 °F 80% 29.64 in 4.0 mi South 3.5 mph - 0.01 in Snow Light Snow
12:53 PM 28.9 °F 22.8 °F 24.1 °F 82% 29.68 in 10.0 mi South 5.8 mph - 0.01 in   Overcast
1:53 PM 30.9 °F 25.2 °F 24.1 °F 76% 29.69 in 10.0 mi SW 5.8 mph - N/A   Overcast
2:53 PM 32.0 °F 26.4 °F 21.9 °F 66% 29.68 in 10.0 mi West 5.8 mph - N/A   Partly Cloudy
3:53 PM 33.1 °F 24.9 °F 18.0 °F 54% 29.72 in 10.0 mi NW 10.4 mph - N/A   Overcast
4:53 PM 30.9 °F 22.2 °F 19.9 °F 64% 29.75 in 10.0 mi NNW 10.4 mph - N/A   Mostly Cloudy
5:53 PM 28.9 °F 21.1 °F 19.0 °F 67% 29.77 in 10.0 mi NW 8.1 mph - N/A   Clear
6:53 PM 27.0 °F 16.7 °F 18.0 °F 69% 29.79 in 10.0 mi NW 11.5 mph - N/A   Clear
7:53 PM 25.0 °F 16.3 °F 17.1 °F 72% 29.82 in 10.0 mi NW 8.1 mph - N/A   Partly Cloudy
8:18 PM 24.8 °F 16.1 °F 17.6 °F 74% 29.78 in 10.0 mi NNW 8.1 mph - N/A   Mostly Cloudy
8:53 PM 25.0 °F 17.1 °F 17.1 °F 72% 29.85 in 10.0 mi NNW 6.9 mph - N/A   Overcast
9:21 PM 23.0 °F 15.8 °F 15.8 °F 74% 29.80 in 10.0 mi NW 5.8 mph - N/A   Scattered Clouds
9:53 PM 24.1 °F 17.0 °F 17.1 °F 75% 29.87 in 10.0 mi NW 5.8 mph - N/A   Partly Cloudy
10:53 PM 21.9 °F 12.5 °F 16.0 °F 78% 29.87 in 10.0 mi NNW 8.1 mph - N/A   Partly Cloudy
11:05 PM 23.0 °F 17.0 °F 17.6 °F 80% 29.85 in 10.0 mi NW 4.6 mph - N/A   Mostly Cloudy
11:53 PM 24.1 °F 19.7 °F 17.1 °F 75% 29.91 in 10.0 mi NNW 3.5 mph - N/A   Overcast